Temperature
16 17 16 15 15 16 16 16 15 16 17 18 18 17 18 19 19 18 17 16 15 15 14 13 13 13 12 12 12 11 11 11 11 10 10 9 9 9 8 8 8 8 7 7
15 16 17 16 16 15 16 16 16 16 16 18 19 19 19 19 18 18 17 16 15 15 14 13 13 13 12 12 11 11 11 10 10 10 9 9 9 8 8 8 7 7 7 6
13 15 15 14 15 15 15 16 16 15 16 18 17 17 18 18 18 17 17 16 15 15 14 14 13 13 12 12 11 11 10 10 9 9 9 8 8 8 7 7 7 7 6 6
12 13 11 14 16 16 16 16 16 16 16 17 17 18 18 18 18 17 16 16 15 15 14 14 13 12 12 11 10 10 10 9 9 8 8 8 7 7 7 7 6 6 6 5
11 11 12 15 16 16 15 15 16 16 16 16 18 17 16 17 17 16 16 15 15 14 14 13 13 12 11 11 10 10 9 9 8 8 7 7 7 6 6 6 6 5 5 4
10 11 11 15 15 17 16 14 16 16 15 15 15 13 13 16 16 16 15 15 14 13 13 13 12 11 11 10 10 9 9 8 8 7 7 6 6 6 5 5 5 5 4 4
10 10 12 16 15 15 13 14 16 17 16 16 13 14 15 15 15 15 14 14 13 13 12 12 11 11 11 10 10 9 8 8 7 7 6 6 5 5 5 4 4 4 3 3
11 10 11 13 14 14 14 17 17 17 17 17 16 15 15 14 14 13 13 13 12 12 12 11 11 10 10 10 9 8 8 7 6 6 5 5 4 4 4 4 3 3 2 2
12 12 14 14 15 16 17 17 17 17 17 16 15 14 14 13 13 12 12 12 11 11 11 10 10 10 9 9 8 8 7 6 6 5 5 4 4 4 3 3 3 2 2 1
13 14 14 15 16 16 16 16 16 16 16 16 15 14 13 12 12 12 11 11 11 11 10 10 9 9 9 8 7 7 6 5 5 4 4 4 3 3 3 2 2 1 1 0
13 14 13 14 15 16 16 16 16 16 16 15 15 14 13 12 12 11 11 11 10 10 10 9 9 8 8 7 6 6 5 5 4 4 3 3 3 2 2 1 1 0 -0 -1
12 14 13 13 16 15 15 15 15 15 15 14 14 14 13 12 12 11 11 10 10 9 9 9 8 7 7 6 6 5 5 4 4 3 3 2 2 2 1 0 -0 -1 -1 -2
15 16 16 16 16 15 15 15 15 15 14 14 13 13 12 12 11 11 10 10 9 9 8 8 7 7 6 5 5 4 4 3 3 3 2 2 1 1 0 -0 -1 -1 -2 -3
15 15 15 15 15 15 15 14 14 13 13 13 13 12 11 11 11 10 10 9 9 8 8 7 6 6 5 4 4 4 3 3 2 2 1 1 0 -0 -1 -2 -2 -2 -3 -4
14 14 15 15 15 14 14 13 13 12 12 12 11 11 11 11 10 10 9 9 8 7 7 6 5 5 4 4 3 3 2 2 1 1 0 -0 -1 -1 -2 -3 -3 -4 -4 -5
13 13 13 13 13 13 13 13 12 12 12 11 11 10 10 10 10 9 8 8 7 7 6 5 4 4 3 3 2 2 2 1 1 0 -0 -1 -2 -2 -3 -4 -5 -5 -6 -6
11 11 11 11 12 12 13 13 13 12 11 11 10 10 9 9 8 8 7 7 6 6 5 4 4 3 2 2 2 1 1 0 -0 -1 -1 -2 -3 -4 -4 -5 -6 -7 -7 -7
13 13 13 13 13 12 12 11 11 11 11 10 10 9 9 8 8 7 7 6 5 4 4 3 3 2 2 1 1 0 0 -1 -1 -2 -2 -3 -4 -5 -6 -6 -7 -7 -8 -8
12 12 12 12 12 12 11 11 10 10 10 9 9 8 8 7 7 6 6 5 4 4 3 2 2 1 1 0 0 -0 -1 -1 -2 -3 -4 -5 -5 -6 -7 -7 -8 -8 -9 -9
11 11 11 11 11 11 10 10 10 9 9 8 8 7 6 6 5 5 4 4 3 3 2 1 1 1 0 -0 -1 -1 -2 -3 -3 -4 -5 -6 -6 -7 -8 -8 -9 -9 -10 -10
10 10 10 10 9 9 9 9 9 8 7 7 7 6 6 5 4 4 3 2 2 1 1 0 0 -0 -1 -1 -2 -2 -3 -4 -5 -5 -6 -7 -7 -8 -9 -9 -10 -10 -10 -10
8 8 8 8 8 7 7 7 7 7 6 5 5 5 4 3 2 2 2 2 1 0 -0 -0 -1 -1 -2 -2 -3 -3 -4 -5 -6 -6 -7 -8 -8 -9 -9 -10 -10 -11 -11 -11
6 6 6 6 6 6 5 5 5 5 5 4 4 3 3 2 2 1 1 0 -0 -0 -1 -1 -2 -2 -3 -3 -4 -4 -5 -6 -6 -7 -8 -8 -9 -10 -10 -10 -11 -11 -11 -11
4 4 4 4 4 4 3 2 3 3 3 2 2 2 2 1 0 0 0 -1 -1 -1 -2 -2 -3 -3 -4 -4 -5 -5 -6 -6 -7 -8 -8 -9 -9 -10 -10 -10 -11 -11 -11 -11
2 2 2 2 2 2 1 1 1 1 1 0 0 -0 0 0 0 -1 -1 -1 -2 -2 -2 -3 -3 -4 -4 -5 -6 -6 -7 -7 -8 -8 -9 -9 -9 -10 -10 -10 -11 -11 -11 -11
-1 -1 -1 -0 0 0 -0 0 -0 -0 -0 -1 -1 -1 -1 -1 -1 -1 -2 -2 -3 -3 -3 -4 -4 -5 -5 -6 -6 -7 -7 -8 -8 -9 -9 -9 -10 -10 -10 -11 -11 -11 -11 -12
-3 -3 -2 -2 -2 -2 -1 -1 -1 -1 -1 -1 -1 -2 -2 -2 -2 -2 -3 -3 -3 -4 -4 -5 -5 -6 -6 -7 -7 -7 -8 -8 -9 -9 -9 -10 -10 -10 -11 -11 -11 -11 -11 -11
Wind_Speed
11 8 14 15 17 19 20 18 13 12 13 11 9 9 8 8 8 7 7 8 7 7 6 7 8 8 8 8 8 9 9 9 8 8 8 8 8 8 8 8 8 7 7 6
13 10 7 11 17 19 21 18 17 14 14 9 5 3 4 6 7 7 7 8 8 7 7 8 8 8 8 8 8 8 8 8 7 7 8 8 8 8 8 7 7 7 7 7
11 10 7 13 15 16 16 16 15 18 16 9 8 7 7 6 7 7 7 8 8 8 7 7 7 8 8 8 8 8 8 7 7 8 8 7 8 7 7 7 6 6 6 6
7 9 13 11 11 14 15 15 15 13 10 9 9 6 5 6 7 7 7 8 8 7 7 6 7 7 8 8 8 8 7 7 7 7 7 7 7 7 6 5 6 6 6 6
6 8 8 7 10 14 15 15 14 14 12 10 6 2 3 5 6 7 7 8 7 7 8 7 8 8 8 8 8 8 7 7 7 7 7 7 7 6 5 5 5 5 5 6
6 7 9 8 11 9 8 11 12 14 14 11 9 6 7 5 6 7 8 8 8 8 9 8 8 8 9 8 8 7 6 6 7 7 7 7 6 5 4 4 4 4 4 5
8 6 8 5 10 12 9 9 9 13 12 11 12 9 7 8 8 9 10 10 9 9 8 8 8 8 8 8 7 6 6 6 6 6 6 5 5 4 4 3 3 3 4 4
9 8 8 6 11 12 7 4 5 7 8 9 8 9 10 10 10 10 10 9 9 9 8 7 7 8 8 7 7 7 7 6 6 5 4 4 4 3 3 3 3 3 4 4
10 10 5 11 10 8 5 6 5 6 7 10 10 9 9 9 10 9 9 8 8 10 9 7 7 7 9 7 7 7 7 6 5 5 4 3 3 3 2 2 2 3 3 4
7 9 10 10 8 7 5 6 6 7 8 9 9 11 10 10 9 9 8 8 8 10 9 7 7 7 8 8 7 7 7 5 4 4 3 2 2 2 2 2 3 3 4 5
9 6 10 10 10 9 7 7 8 7 7 9 11 11 10 10 10 9 8 7 8 9 9 8 8 8 8 7 7 7 6 5 4 3 3 2 1 2 3 4 4 4 5 5
9 9 8 9 11 10 10 10 10 9 8 8 9 11 10 10 9 9 9 8 8 9 9 9 8 8 7 6 7 7 5 4 3 2 1 1 1 2 3 5 8 9 10 9
6 7 7 7 9 11 11 10 10 10 10 9 8 10 11 10 9 10 10 9 9 10 10 9 9 8 6 6 6 6 5 3 2 2 1 1 1 2 4 5 8 10 12 14
4 4 6 7 8 9 9 9 9 9 8 9 9 10 11 10 11 11 10 9 10 10 10 9 9 7 6 6 6 5 4 3 2 1 1 1 2 3 3 4 5 5 7 13
6 5 7 7 9 9 9 10 11 10 9 9 9 11 12 13 12 10 10 10 11 10 9 9 9 7 6 6 6 5 3 2 1 1 0 1 2 3 4 5 5 6 5 7
7 6 8 9 11 10 10 11 11 11 10 10 10 11 11 12 12 11 10 10 11 10 9 9 8 6 6 6 5 3 2 1 0 0 1 2 3 3 4 5 5 6 6 6
11 10 9 10 10 10 10 10 11 12 11 12 12 13 14 14 13 11 10 9 9 9 9 9 7 6 5 5 4 3 2 0 2 2 2 3 3 4 5 5 6 7 6 9
12 13 13 13 13 12 10 10 11 12 12 12 14 14 15 15 14 12 11 11 11 9 8 7 7 6 5 4 3 2 1 0 1 2 3 3 4 4 5 6 7 8 7 8
10 10 11 11 11 12 11 11 11 12 13 14 15 13 12 12 13 12 12 11 11 9 6 6 8 6 4 3 3 1 0 2 3 3 3 7 6 5 5 6 6 7 7 7
9 9 10 10 10 11 13 13 13 13 12 14 15 14 13 12 12 12 11 8 6 6 7 6 5 4 4 2 2 0 1 2 3 4 4 4 5 5 5 6 6 7 7 7
11 11 12 12 12 12 13 14 15 14 13 13 15 15 14 12 11 10 11 8 5 7 7 7 4 3 3 1 2 1 2 3 3 4 4 4 5 5 6 7 7 8 8 8
11 13 13 14 14 13 11 12 14 15 15 14 14 15 15 13 11 9 8 6 7 7 5 4 3 3 2 3 1 2 2 3 3 3 4 4 5 6 7 7 7 8 8 8
12 13 14 14 15 15 14 13 13 14 15 15 14 14 13 10 8 8 7 5 5 7 5 3 3 3 4 3 1 2 2 3 3 4 4 5 5 6 7 8 8 8 8 8
13 14 14 14 16 17 16 14 13 13 14 13 12 11 11 10 8 7 7 9 8 7 4 3 3 4 5 2 2 2 2 3 4 4 5 6 6 6 7 7 8 8 9 10
14 15 15 16 15 14 15 16 16 15 14 12 12 10 8 7 7 7 7 6 6 6 3 3 4 5 3 2 2 2 3 4 6 6 5 5 6 7 7 8 8 9 9 9
13 12 11 11 12 12 12 12 12 11 11 11 9 8 8 8 8 7 6 5 5 4 3 2 2 3 2 2 3 3 4 5 6 5 6 7 8 8 8 9 10 9 10 10
13 12 12 12 11 10 10 11 11 10 10 11 10 7 7 7 6 6 5 4 3 3 2 1 1 2 2 3 3 4 4 5 5 6 6 7 7 8 8 10 9 10 10 10
Wind_Direction
227 206 180 193 203 209 216 220 224 229 232 230 212 196 189 186 186 173 160 165 171 175 176 169 169 172 170 168 164 162 164 168 171 166 163 163 161 161 161 163 170 172 175 182
231 230 209 208 205 209 218 224 234 244 248 245 253 218 201 199 187 175 174 173 171 173 171 169 168 168 164 162 159 156 161 165 162 160 161 161 160 159 161 166 170 173 181 188
222 217 223 235 216 211 216 221 224 236 242 245 248 231 217 209 186 181 181 172 170 172 172 165 161 159 161 157 150 151 155 157 159 159 159 159 158 160 168 173 175 183 190 196
200 196 222 233 203 209 220 224 219 228 231 223 227 223 196 188 189 189 177 163 163 159 153 146 141 139 139 138 140 145 151 155 154 152 153 155 160 171 176 176 182 190 199 206
192 204 237 229 200 198 209 230 220 225 229 224 211 208 244 207 181 171 157 146 144 141 135 129 129 130 128 130 134 143 152 153 151 151 155 161 171 177 179 179 190 196 201 209
188 200 220 216 187 174 181 242 220 213 219 209 171 203 229 182 155 139 123 118 119 118 117 120 123 125 128 133 136 145 146 144 144 149 156 166 173 176 178 180 189 192 208 218
195 210 243 216 156 136 175 228 208 201 204 189 186 197 161 131 119 119 117 117 118 116 116 122 124 124 128 129 136 136 131 131 136 143 152 159 164 167 165 167 175 203 226 238
197 207 224 171 151 170 195 171 164 171 174 167 158 136 132 128 124 122 121 124 122 116 114 115 121 125 126 129 130 124 125 129 134 138 142 146 149 156 159 166 196 226 242 255
196 209 179 171 184 190 154 154 156 149 144 144 144 146 140 138 135 133 134 130 123 122 119 116 119 126 130 131 127 125 125 127 128 127 128 137 145 152 163 184 211 237 247 260
196 198 184 187 187 179 165 155 146 142 142 144 147 147 145 144 142 139 134 131 128 128 128 125 119 113 122 125 124 124 126 126 125 126 132 133 134 157 182 209 228 244 255 263
212 179 162 191 195 182 165 140 131 132 145 151 146 149 151 149 148 143 136 133 134 136 134 130 120 114 117 122 123 122 121 121 120 123 135 141 165 199 211 220 225 242 247 250
209 190 177 195 195 179 167 169 164 153 149 148 151 152 148 147 144 139 138 136 134 131 129 126 121 118 117 118 119 121 121 121 121 125 124 140 226 297 280 271 274 271 272 274
209 184 179 173 172 174 176 174 166 161 158 152 148 145 143 140 138 135 137 139 138 134 130 127 123 120 117 113 112 115 124 127 124 126 143 195 248 262 286 294 282 283 286 290
188 158 167 168 168 164 158 153 144 140 141 143 141 136 132 130 132 136 141 139 130 126 125 124 123 121 115 108 107 109 112 122 133 152 183 234 255 263 270 282 293 291 292 296
188 175 167 152 138 132 130 130 133 139 138 135 134 135 136 138 138 134 129 125 122 121 122 123 121 118 109 105 107 109 112 123 124 137 232 262 269 273 276 281 285 290 293 298
169 143 136 141 146 145 143 147 151 155 149 142 138 136 131 126 123 121 122 128 131 132 129 124 122 116 107 106 106 104 110 129 115 233 267 277 278 279 281 282 286 289 292 295
160 167 167 165 167 168 169 166 161 156 149 146 140 131 125 123 122 121 118 113 115 116 117 120 120 112 108 109 109 113 113 143 305 299 269 268 271 274 277 283 286 288 288 295
182 182 178 174 173 170 164 155 150 147 146 139 133 133 136 139 138 133 125 117 110 102 100 110 114 109 104 102 101 102 105 234 261 264 270 273 281 277 280 281 284 287 290 296
181 176 171 166 163 157 150 144 139 134 132 135 136 136 132 128 129 128 126 124 124 122 117 115 114 107 106 102 89 94 262 276 278 277 276 291 296 284 282 284 286 288 292 294
169 157 147 141 137 136 136 133 130 129 132 132 127 123 121 122 124 123 117 108 110 124 126 119 110 108 105 96 59 41 280 279 282 285 285 284 286 288 289 291 293 293 293 293
153 139 132 129 124 123 129 132 133 131 129 128 128 128 125 122 120 120 117 111 105 108 112 112 106 106 99 52 357 309 287 287 289 291 293 295 296 297 296 295 295 298 298 298
135 131 127 125 122 118 117 120 124 124 121 118 118 121 121 119 113 101 95 113 122 113 104 99 102 95 46 2 335 301 296 298 301 302 301 300 299 297 295 296 296 298 297 294
125 125 125 125 123 117 109 110 114 118 119 121 123 124 121 119 118 119 114 111 110 101 94 93 86 43 358 4 342 326 323 319 314 309 304 298 295 294 294 295 295 296 294 293
117 116 117 117 116 114 112 108 105 106 106 104 103 107 113 110 94 86 105 111 104 93 87 77 43 9 1 17 351 337 328 318 308 299 294 292 291 292 293 294 295 295 294 294
113 115 118 120 118 117 116 114 109 106 103 100 94 88 86 94 107 107 100 99 97 87 78 50 24 10 17 359 339 324 314 300 297 299 296 298 297 297 296 295 295 295 295 294
112 113 111 109 115 122 123 121 117 116 115 111 102 96 93 93 96 98 96 93 85 74 68 51 21 7 0 333 316 307 299 303 308 307 299 297 296 295 294 294 294 293 292 291
104 106 106 105 104 108 112 113 115 115 116 117 112 104 101 99 97 95 93 88 80 71 58 36 12 346 325 313 306 301 298 296 294 292 293 293 292 291 291 291 292 292 291 290
Height
1407 1406 1410 1418 1422 1425 1428 1429 1436 1432 1431 1427 1426 1427 1428 1430 1433 1435 1437 1439 1441 1443 1444 1446 1448 1449 1451 1453 1456 1458 1460 1463 1465 1468 1471 1474 1476 1479 1481 1483 1485 1487 1488 1489
1408 1405 1405 1411 1413 1417 1419 1421 1423 1424 1424 1418 1419 1421 1423 1426 1428 1431 1433 1435 1437 1439 1441 1442 1444 1446 1448 1450 1452 1455 1457 1459 1462 1465 1467 1470 1472 1474 1477 1479 1481 1482 1483 1484
1410 1406 1409 1414 1407 1409 1411 1412 1416 1419 1416 1415 1417 1418 1419 1422 1424 1426 1429 1431 1433 1435 1437 1439 1441 1442 1444 1446 1449 1451 1454 1456 1459 1461 1463 1466 1468 1470 1472 1474 1476 1477 1478 1479
1409 1411 1421 1402 1393 1397 1402 1403 1405 1406 1407 1409 1411 1413 1415 1417 1420 1422 1425 1427 1429 1431 1433 1436 1438 1440 1442 1444 1446 1448 1451 1453 1455 1457 1460 1462 1464 1466 1468 1470 1471 1473 1473 1474
1409 1410 1405 1392 1387 1389 1396 1397 1396 1399 1401 1404 1407 1410 1411 1413 1415 1418 1421 1423 1425 1428 1430 1432 1435 1437 1439 1441 1444 1446 1448 1450 1452 1454 1456 1458 1460 1462 1464 1465 1467 1468 1469 1469
1405 1407 1404 1386 1380 1381 1390 1397 1388 1390 1393 1397 1402 1411 1409 1409 1411 1414 1417 1419 1422 1425 1427 1429 1432 1435 1437 1439 1441 1443 1445 1447 1449 1451 1453 1455 1457 1459 1460 1462 1463 1463 1464 1464
1399 1400 1389 1374 1373 1380 1399 1392 1380 1381 1385 1390 1395 1399 1402 1405 1408 1410 1413 1416 1419 1422 1425 1428 1430 1433 1435 1437 1439 1441 1443 1445 1447 1448 1450 1452 1454 1455 1457 1458 1458 1459 1459 1458
1390 1395 1390 1372 1373 1379 1379 1375 1375 1377 1380 1385 1389 1394 1398 1402 1405 1408 1411 1414 1417 1420 1423 1426 1429 1431 1433 1435 1438 1439 1441 1443 1444 1446 1447 1449 1451 1452 1453 1454 1454 1454 1453 1452
1371 1372 1364 1365 1366 1368 1370 1373 1374 1376 1379 1382 1387 1391 1395 1399 1403 1406 1410 1413 1416 1419 1422 1425 1428 1430 1432 1434 1436 1437 1439 1440 1442 1443 1445 1446 1448 1449 1449 1450 1449 1448 1447 1445
1360 1359 1360 1361 1362 1365 1368 1370 1372 1375 1378 1381 1384 1388 1393 1397 1401 1404 1408 1411 1414 1418 1420 1423 1426 1428 1430 1432 1434 1435 1437 1438 1440 1441 1443 1444 1445 1446 1446 1445 1445 1443 1441 1439
1354 1352 1354 1357 1359 1362 1365 1368 1371 1374 1377 1379 1382 1386 1390 1394 1398 1402 1406 1410 1413 1416 1419 1422 1424 1426 1429 1430 1432 1433 1435 1436 1438 1439 1440 1441 1441 1442 1441 1441 1440 1438 1436 1434
1349 1347 1350 1352 1355 1358 1362 1365 1368 1371 1375 1378 1381 1384 1388 1392 1396 1400 1404 1408 1411 1414 1417 1420 1422 1425 1427 1428 1430 1431 1433 1434 1435 1436 1437 1437 1437 1437 1436 1436 1434 1433 1430 1428
1340 1342 1344 1347 1351 1355 1358 1361 1365 1368 1371 1375 1379 1382 1386 1389 1393 1398 1402 1406 1409 1412 1415 1418 1420 1423 1425 1427 1428 1429 1431 1432 1433 1433 1433 1433 1432 1431 1429 1429 1428 1426 1424 1422
1336 1339 1341 1344 1347 1351 1355 1358 1362 1365 1369 1373 1376 1379 1383 1387 1391 1395 1400 1404 1407 1410 1413 1416 1419 1421 1423 1425 1426 1427 1428 1429 1430 1430 1429 1428 1427 1426 1424 1421 1419 1417 1416 1414
1332 1335 1337 1340 1344 1347 1351 1355 1358 1362 1366 1370 1373 1376 1380 1384 1389 1393 1398 1402 1405 1408 1411 1414 1417 1419 1421 1422 1424 1425 1425 1426 1426 1425 1425 1424 1422 1420 1418 1416 1413 1410 1408 1406
1328 1331 1334 1337 1340 1343 1347 1351 1354 1358 1362 1366 1370 1374 1378 1383 1387 1392 1396 1400 1403 1406 1409 1412 1414 1417 1418 1420 1421 1422 1422 1422 1422 1421 1420 1418 1416 1414 1412 1409 1407 1404 1401 1399
1323 1327 1330 1333 1336 1340 1343 1347 1350 1354 1358 1363 1367 1371 1376 1380 1385 1390 1394 1398 1402 1405 1408 1410 1413 1414 1416 1417 1418 1418 1418 1418 1417 1416 1414 1413 1411 1408 1406 1403 1401 1398 1396 1393
1317 1320 1324 1328 1332 1336 1340 1344 1348 1351 1355 1359 1364 1369 1373 1378 1382 1387 1392 1396 1399 1403 1406 1408 1411 1412 1413 1414 1414 1414 1414 1413 1412 1411 1409 1407 1405 1403 1400 1397 1395 1392 1389 1387
1314 1317 1321 1325 1328 1332 1336 1340 1344 1348 1353 1357 1362 1367 1372 1377 1381 1386 1390 1394 1397 1400 1404 1406 1408 1409 1410 1411 1411 1410 1409 1408 1407 1405 1403 1401 1399 1397 1394 1392 1389 1386 1383 1380
1309 1313 1317 1321 1325 1329 1332 1337 1341 1346 1350 1355 1360 1365 1370 1375 1380 1384 1388 1392 1396 1399 1402 1404 1405 1406 1407 1407 1407 1406 1405 1403 1401 1400 1398 1395 1393 1391 1388 1385 1383 1380 1377 1374
1303 1307 1312 1316 1321 1325 1330 1334 1338 1343 1348 1353 1358 1363 1369 1374 1379 1383 1387 1391 1395 1398 1400 1401 1403 1403 1403 1403 1402 1401 1400 1398 1396 1394 1392 1390 1387 1385 1382 1379 1376 1374 1371 1368
1298 1303 1308 1313 1317 1322 1327 1332 1337 1342 1347 1352 1358 1363 1368 1373 1378 1383 1387 1390 1393 1395 1397 1399 1399 1400 1399 1399 1397 1396 1395 1393 1391 1389 1386 1384 1381 1378 1376 1373 1370 1367 1365 1362
1295 1300 1306 1311 1315 1320 1326 1331 1337 1341 1347 1352 1358 1363 1368 1373 1378 1381 1385 1389 1391 1393 1395 1395 1396 1396 1395 1394 1393 1391 1389 1387 1385 1383 1381 1378 1376 1373 1370 1367 1364 1361 1358 1355
1294 1299 1304 1310 1315 1319 1325 1331 1337 1343 1348 1354 1360 1365 1369 1373 1378 1382 1385 1387 1389 1391 1392 1392 1392 1391 1391 1389 1388 1386 1384 1382 1380 1378 1375 1373 1370 1368 1365 1362 1359 1356 1353 1349
1294 1299 1305 1309 1315 1320 1325 1332 1338 1344 1350 1355 1361 1366 1371 1374 1378 1381 1383 1385 1387 1388 1389 1388 1388 1387 1386 1385 1383 1382 1380 1378 1375 1373 1370 1368 1365 1362 1359 1356 1353 1350 1347 1344
1297 1302 1307 1312 1316 1322 1328 1333 1339 1346 1351 1356 1362 1367 1371 1374 1377 1380 1382 1383 1384 1385 1385 1385 1384 1383 1382 1381 1379 1377 1375 1373 1371 1368 1366 1363 1360 1357 1354 1351 1348 1345 1341 1338
1301 1305 1310 1316 1321 1326 1331 1337 1342 1348 1354 1358 1362 1367 1371 1374 1376 1378 1380 1381 1381 1381 1381 1381 1380 1379 1378 1377 1375 1373 1371 1369 1366 1364 1361 1358 1355 1352 1349 1346 1342 1339 1335 1332